| time (UTC) | temp F | wind direction | speed MPH | gust MPH | rain 1hr in | rain 24hr in | rain mn in | humidity % | barometer mb |
| 20260505163515 | 38 | 8 | 0.0 | 3.0 | 0.01 | 0.39 | 0.27 | 94 | 1015.1 |
| 20260505163017 | 38 | 8 | 1.0 | 4.0 | 0.01 | 0.39 | 0.27 | 94 | 1015.2 |
| 20260505162512 | 37 | 8 | 1.0 | 4.0 | 0.01 | 0.39 | 0.27 | 94 | 1015.2 |
| 20260505162013 | 37 | 8 | 1.0 | 4.0 | 0.01 | 0.39 | 0.27 | 94 | 1015.3 |
| 20260505161519 | 37 | 8 | 1.0 | 4.0 | 0.01 | 0.39 | 0.27 | 94 | 1015.2 |
| 20260505161016 | 37 | 8 | 1.0 | 4.0 | 0.01 | 0.39 | 0.27 | 94 | 1015.3 |
| 20260505160517 | 37 | 8 | 2.0 | 4.0 | 0.01 | 0.39 | 0.27 | 94 | 1015.3 |
| 20260505153016 | 37 | 1 | 1.0 | 3.0 | 0.01 | 0.38 | 0.26 | 94 | 1015.5 |
| 20260505152516 | 37 | 1 | 1.0 | 3.0 | 0.02 | 0.38 | 0.26 | 94 | 1015.6 |
| 20260505152017 | 37 | 1 | 1.0 | 3.0 | 0.02 | 0.38 | 0.26 | 94 | 1015.6 |
| 20260505151515 | 36 | 1 | 1.0 | 4.0 | 0.02 | 0.38 | 0.26 | 94 | 1015.5 |
| 20260505151015 | 36 | 1 | 1.0 | 4.0 | 0.02 | 0.38 | 0.26 | 93 | 1015.5 |
| 20260505150525 | 37 | 1 | 1.0 | 4.0 | 0.02 | 0.38 | 0.26 | 94 | 1015.6 |
| 20260505140521 | 36 | 24 | 1.0 | 4.0 | 0.03 | 0.36 | 0.24 | 94 | 1015.6 |
| 20260505125025 | 36 | 6 | 2.0 | 6.0 | 0.03 | 0.32 | 0.20 | 93 | 1014.9 |
| 20260505124532 | 36 | 5 | 2.0 | 8.0 | 0.04 | 0.32 | 0.20 | 93 | 1014.7 |
| 20260505124024 | 36 | 5 | 2.0 | 8.0 | 0.04 | 0.32 | 0.20 | 93 | 1014.6 |
| 20260505123524 | 36 | 17 | 3.0 | 8.0 | 0.03 | 0.31 | 0.19 | 93 | 1014.5 |
| 20260505123029 | 36 | 6 | 2.0 | 8.0 | 0.04 | 0.31 | 0.19 | 93 | 1014.6 |
| 20260505122524 | 36 | 11 | 3.0 | 8.0 | 0.04 | 0.31 | 0.19 | 93 | 1014.7 |
| 20260505122021 | 36 | 1 | 3.0 | 8.0 | 0.04 | 0.30 | 0.18 | 92 | 1014.7 |
| 20260505121534 | 37 | 1 | 3.0 | 8.0 | 0.04 | 0.30 | 0.18 | 92 | 1014.5 |
| 20260505121025 | 37 | 1 | 3.0 | 9.0 | 0.04 | 0.30 | 0.18 | 92 | 1014.4 |
| 20260505120526 | 37 | 359 | 3.0 | 9.0 | 0.03 | 0.28 | 0.17 | 92 | 1014.3 |
| 20260505120038 | 37 | 1 | 3.0 | 9.0 | 0.03 | 0.28 | 0.17 | 92 | 1014.4 |
| 20260505115527 | 37 | 345 | 5.0 | 9.0 | 0.03 | 0.28 | 0.17 | 92 | 1014.4 |
| 20260505115027 | 37 | 359 | 3.0 | 8.0 | 0.03 | 0.28 | 0.17 | 92 | 1014.3 |
| 20260505114524 | 37 | 359 | 4.0 | 8.0 | 0.03 | 0.28 | 0.16 | 91 | 1014.2 |
| 20260505114023 | 38 | 8 | 3.0 | 9.0 | 0.03 | 0.28 | 0.16 | 91 | 1014.2 |
| 20260505113521 | 38 | 8 | 2.0 | 9.0 | 0.03 | 0.28 | 0.16 | 91 | 1014.2 |
| 20260505113025 | 38 | 360 | 3.0 | 8.0 | 0.02 | 0.27 | 0.15 | 92 | 1014.2 |
| 20260505112524 | 38 | 27 | 2.0 | 11.0 | 0.03 | 0.27 | 0.15 | 91 | 1014.0 |
| 20260505112023 | 39 | 1 | 5.0 | 11.0 | 0.02 | 0.26 | 0.14 | 91 | 1014.0 |
| 20260505111526 | 39 | 23 | 3.0 | 9.0 | 0.03 | 0.26 | 0.14 | 92 | 1014.0 |
| 20260505111025 | 39 | 23 | 3.0 | 10.0 | 0.04 | 0.26 | 0.14 | 92 | 1013.9 |
| 20260505110524 | 39 | 16 | 4.0 | 10.0 | 0.05 | 0.26 | 0.14 | 92 | 1013.6 |
| 20260505102007 | 40 | 359 | 4.0 | 11.0 | 0.05 | 0.24 | 0.12 | 92 | 1012.9 |
| 20260505101512 | 40 | 3 | 3.0 | 11.0 | 0.04 | 0.23 | 0.11 | 91 | 1012.8 |
| 20260505101016 | 40 | 49 | 3.0 | 8.0 | 0.03 | 0.22 | 0.10 | 91 | 1012.7 |
| 20260505100510 | 40 | 2 | 2.0 | 7.0 | 0.02 | 0.21 | 0.09 | 91 | 1012.6 |
| 20260505100010 | 41 | 4 | 4.0 | 7.0 | 0.02 | 0.20 | 0.08 | 91 | 1012.5 |
| 20260505095514 | 41 | 29 | 3.0 | 8.0 | 0.02 | 0.20 | 0.08 | 91 | 1012.4 |
| 20260505095008 | 41 | 19 | 4.0 | 8.0 | 0.02 | 0.19 | 0.07 | 91 | 1012.4 |
| 20260505094521 | 41 | 5 | 2.0 | 7.0 | 0.03 | 0.19 | 0.07 | 91 | 1012.5 |
| 20260505094013 | 41 | 4 | 2.0 | 7.0 | 0.04 | 0.19 | 0.07 | 91 | 1012.4 |
| 20260505093512 | 41 | 13 | 3.0 | 7.0 | 0.05 | 0.19 | 0.07 | 91 | 1012.3 |
| 20260505093012 | 41 | 58 | 2.0 | 9.0 | 0.06 | 0.19 | 0.07 | 91 | 1012.2 |
| 20260505092515 | 41 | 54 | 3.0 | 10.0 | 0.07 | 0.19 | 0.07 | 91 | 1012.2 |
| 20260505092012 | 42 | 45 | 2.0 | 10.0 | 0.07 | 0.19 | 0.07 | 91 | 1012.2 |
| 20260505091513 | 42 | 359 | 4.0 | 9.0 | 0.07 | 0.19 | 0.07 | 91 | 1012.1 |
| 20260505091012 | 42 | 62 | 4.0 | 8.0 | 0.07 | 0.19 | 0.07 | 91 | 1012.0 |
| 20260505090510 | 42 | 43 | 2.0 | 8.0 | 0.07 | 0.19 | 0.07 | 91 | 1012.0 |
| 20260505090019 | 43 | 55 | 3.0 | 7.0 | 0.06 | 0.18 | 0.06 | 90 | 1012.0 |
| 20260505085514 | 43 | 65 | 1.0 | 4.0 | 0.05 | 0.17 | 0.05 | 90 | 1012.1 |
| 20260505085011 | 43 | 66 | 1.0 | 4.0 | 0.05 | 0.17 | 0.05 | 90 | 1012.1 |
| 20260505084513 | 43 | 66 | 1.0 | 3.0 | 0.04 | 0.16 | 0.04 | 90 | 1012.1 |
| 20260505084012 | 44 | 66 | 1.0 | 9.0 | 0.03 | 0.15 | 0.03 | 90 | 1012.1 |
| 20260505083512 | 44 | 63 | 2.0 | 10.0 | 0.02 | 0.14 | 0.02 | 89 | 1012.0 |
| 20260505083018 | 45 | 49 | 4.0 | 10.0 | 0.01 | 0.13 | 0.01 | 88 | 1011.9 |
| 20260505082514 | 47 | 50 | 3.0 | 6.0 | 0.00 | 0.12 | 0.00 | 90 | 1011.9 |
| 20260505082012 | 47 | 66 | 2.0 | 5.0 | 0.00 | 0.12 | 0.00 | 90 | 1011.8 |
| 20260505081511 | 47 | 65 | 2.0 | 4.0 | 0.00 | 0.12 | 0.00 | 91 | 1011.8 |
| 20260505081016 | 47 | 65 | 1.0 | 5.0 | 0.00 | 0.12 | 0.00 | 91 | 1011.8 |
| 20260505080510 | 47 | 65 | 2.0 | 5.0 | 0.00 | 0.12 | 0.00 | 91 | 1011.7 |
| 20260505080008 | 47 | 60 | 2.0 | 6.0 | 0.00 | 0.12 | 0.00 | 91 | 1011.8 |
| 20260505075511 | 48 | 49 | 2.0 | 6.0 | 0.00 | 0.12 | 0.00 | 92 | 1011.9 |
| 20260505075012 | 48 | 288 | 1.0 | 4.0 | 0.00 | 0.12 | 0.00 | 92 | 1011.9 |
| 20260505074511 | 48 | 287 | 2.0 | 4.0 | 0.00 | 0.12 | 0.00 | 92 | 1012.0 |
| 20260505074011 | 48 | 250 | 0.0 | 3.0 | 0.00 | 0.12 | 0.00 | 92 | 1012.0 |
| 20260505073515 | 48 | 250 | 1.0 | 3.0 | 0.00 | 0.12 | 0.00 | 91 | 1012.0 |
| 20260505073011 | 48 | 248 | 1.0 | 3.0 | 0.00 | 0.12 | 0.00 | 91 | 1012.0 |
| 20260505072511 | 48 | 247 | 1.0 | 2.0 | 0.00 | 0.12 | 0.00 | 91 | 1012.0 |
| 20260505072010 | 48 | 247 | 0.0 | 1.0 | 0.00 | 0.12 | 0.00 | 91 | 1012.0 |
| 20260505071527 | 48 | 247 | 0.0 | 0.0 | 0.00 | 0.12 | 0.00 | 91 | 1012.1 |
| 20260505071011 | 48 | 247 | 0.0 | 0.0 | 0.00 | 0.12 | 0.00 | 91 | 1012.0 |
| 20260505070516 | 48 | 247 | 0.0 | 2.0 | 0.00 | 0.12 | 0.00 | 91 | 1011.8 |
| 20260505070018 | 48 | 247 | 0.0 | 2.0 | 0.00 | 0.12 | 0.00 | 91 | 1011.8 |
| 20260505065515 | 48 | 247 | 0.0 | 2.0 | 0.00 | 0.12 | 0.00 | 91 | 1011.7 |
| 20260505065015 | 48 | 247 | 0.0 | 1.0 | 0.00 | 0.12 | 0.00 | 91 | 1011.8 |
| 20260505064514 | 48 | 247 | 0.0 | 0.0 | 0.00 | 0.12 | 0.00 | 91 | 1011.7 |
| 20260505064013 | 48 | 247 | 0.0 | 0.0 | 0.00 | 0.12 | 0.00 | 91 | 1011.8 |
| 20260505063513 | 48 | 247 | 0.0 | 0.0 | 0.00 | 0.12 | 0.00 | 91 | 1011.9 |
| 20260505063018 | 48 | 247 | 0.0 | 3.0 | 0.00 | 0.12 | 0.00 | 91 | 1011.9 |
| 20260505062517 | 48 | 247 | 0.0 | 4.0 | 0.00 | 0.12 | 0.00 | 91 | 1011.9 |
| 20260505062017 | 48 | 248 | 1.0 | 4.0 | 0.00 | 0.12 | 0.00 | 91 | 1011.9 |
| 20260505061519 | 48 | 250 | 2.0 | 4.0 | 0.00 | 0.12 | 0.00 | 90 | 1012.0 |
| 20260505061020 | 48 | 253 | 1.0 | 2.0 | 0.00 | 0.12 | 0.00 | 90 | 1012.1 |
| 20260505060515 | 48 | 253 | 0.0 | 0.0 | 0.00 | 0.12 | 0.00 | 90 | 1012.0 |
| 20260505060035 | 48 | 253 | 0.0 | 0.0 | 0.00 | 0.12 | 0.00 | 90 | 1011.9 |
| 20260505055520 | 48 | 253 | 0.0 | 0.0 | 0.00 | 0.12 | 0.12 | 90 | 1012.0 |
| 20260505055016 | 48 | 253 | 0.0 | 0.0 | 0.00 | 0.12 | 0.12 | 90 | 1011.9 |
| 20260505054519 | 48 | 253 | 0.0 | 0.0 | 0.00 | 0.12 | 0.12 | 90 | 1011.8 |
| 20260505054018 | 48 | 253 | 0.0 | 0.0 | 0.00 | 0.12 | 0.12 | 90 | 1011.7 |
| 20260505053518 | 48 | 253 | 0.0 | 2.0 | 0.00 | 0.12 | 0.12 | 90 | 1011.8 |
| 20260505053017 | 48 | 253 | 0.0 | 2.0 | 0.00 | 0.12 | 0.12 | 90 | 1011.5 |
| 20260505052520 | 48 | 253 | 0.0 | 4.0 | 0.00 | 0.12 | 0.12 | 90 | 1011.5 |
| 20260505052017 | 48 | 253 | 0.0 | 4.0 | 0.00 | 0.12 | 0.12 | 90 | 1011.5 |
| 20260505051525 | 48 | 253 | 2.0 | 5.0 | 0.00 | 0.12 | 0.12 | 90 | 1011.5 |
| 20260505051019 | 48 | 253 | 2.0 | 5.0 | 0.01 | 0.12 | 0.12 | 90 | 1011.7 |
| 20260505050520 | 48 | 253 | 3.0 | 6.0 | 0.01 | 0.12 | 0.12 | 90 | 1011.7 |
| 20260505041523 | 48 | 264 | 2.0 | 4.0 | 0.11 | 0.12 | 0.12 | 90 | 1012.1 |
| 20260505041018 | 48 | 264 | 2.0 | 5.0 | 0.10 | 0.11 | 0.11 | 89 | 1012.0 |
| 20260505040518 | 48 | 264 | 3.0 | 5.0 | 0.11 | 0.11 | 0.11 | 89 | 1012.0 |
| 20260505040020 | 49 | 264 | 3.0 | 5.0 | 0.11 | 0.11 | 0.11 | 88 | 1012.1 |
| 20260505035520 | 49 | 264 | 1.0 | 5.0 | 0.10 | 0.10 | 0.10 | 88 | 1012.0 |
| 20260505035018 | 49 | 264 | 2.0 | 7.0 | 0.08 | 0.08 | 0.08 | 88 | 1012.1 |
| 20260505034521 | 49 | 264 | 4.0 | 7.0 | 0.07 | 0.07 | 0.07 | 87 | 1012.0 |
| 20260505034020 | 49 | 262 | 4.0 | 8.0 | 0.06 | 0.06 | 0.06 | 86 | 1012.1 |
| 20260505033520 | 49 | 264 | 5.0 | 9.0 | 0.05 | 0.05 | 0.05 | 85 | 1012.1 |
| 20260505033021 | 49 | 288 | 4.0 | 9.0 | 0.04 | 0.04 | 0.04 | 84 | 1012.0 |
| 20260505032521 | 49 | 286 | 4.0 | 9.0 | 0.03 | 0.03 | 0.03 | 82 | 1011.9 |
| 20260505032019 | 50 | 289 | 5.0 | 10.0 | 0.02 | 0.02 | 0.02 | 80 | 1011.8 |
| 20260505031523 | 51 | 287 | 6.0 | 10.0 | 0.01 | 0.01 | 0.01 | 78 | 1011.8 |
| 20260505031022 | 51 | 335 | 1.0 | 3.0 | 0.00 | 0.00 | 0.00 | 77 | 1011.8 |
| 20260505030522 | 52 | 335 | 0.0 | 2.0 | 0.00 | 0.00 | 0.00 | 76 | 1011.7 |
| 20260505030024 | 52 | 336 | 0.0 | 2.0 | 0.00 | 0.00 | 0.00 | 75 | 1011.5 |
| 20260505025522 | 52 | 336 | 0.0 | 3.0 | 0.00 | 0.00 | 0.00 | 75 | 1011.3 |
| 20260505025022 | 52 | 336 | 0.0 | 3.0 | 0.00 | 0.00 | 0.00 | 73 | 1011.0 |
| 20260505024521 | 52 | 336 | 0.0 | 3.0 | 0.00 | 0.00 | 0.00 | 72 | 1010.9 |
| 20260505024020 | 53 | 335 | 0.0 | 4.0 | 0.00 | 0.00 | 0.00 | 71 | 1010.9 |
| 20260505023620 | 53 | 335 | 1.0 | 4.0 | 0.00 | 0.00 | 0.00 | 70 | 1010.8 |
| 20260505023025 | 53 | 337 | 1.0 | 4.0 | 0.00 | 0.00 | 0.00 | 69 | 1010.6 |
| 20260505022523 | 53 | 335 | 1.0 | 4.0 | 0.00 | 0.00 | 0.00 | 69 | 1010.4 |
| 20260505022029 | 53 | 335 | 0.0 | 4.0 | 0.00 | 0.00 | 0.00 | 69 | 1010.3 |
| 20260505021528 | 53 | 335 | 1.0 | 5.0 | 0.00 | 0.00 | 0.00 | 69 | 1010.4 |
| 20260505021020 | 53 | 338 | 1.0 | 7.0 | 0.00 | 0.00 | 0.00 | 69 | 1010.5 |
| 20260505020520 | 53 | 336 | 2.0 | 7.0 | 0.00 | 0.00 | 0.00 | 70 | 1010.8 |
| 20260505020025 | 53 | 352 | 1.0 | 6.0 | 0.00 | 0.00 | 0.00 | 70 | 1010.8 |
| 20260505015525 | 53 | 349 | 2.0 | 6.0 | 0.00 | 0.00 | 0.00 | 69 | 1010.6 |
| 20260505015029 | 53 | 1 | 3.0 | 7.0 | 0.00 | 0.00 | 0.00 | 68 | 1010.6 |
| 20260505014525 | 54 | 1 | 2.0 | 11.0 | 0.00 | 0.00 | 0.00 | 67 | 1010.4 |
| 20260505014029 | 55 | 1 | 5.0 | 11.0 | 0.00 | 0.00 | 0.00 | 64 | 1010.3 |
| 20260505013522 | 56 | 356 | 4.0 | 8.0 | 0.00 | 0.00 | 0.00 | 59 | 1010.3 |
| 20260505013022 | 56 | 10 | 2.0 | 7.0 | 0.00 | 0.00 | 0.00 | 59 | 1010.3 |
| 20260505012522 | 56 | 3 | 2.0 | 8.0 | 0.00 | 0.00 | 0.00 | 57 | 1010.4 |
| 20260505012022 | 57 | 1 | 4.0 | 8.0 | 0.00 | 0.00 | 0.00 | 56 | 1010.2 |
| 20260505011526 | 58 | 4 | 2.0 | 8.0 | 0.00 | 0.00 | 0.00 | 54 | 1010.2 |
| 20260505011024 | 58 | 359 | 2.0 | 6.0 | 0.00 | 0.00 | 0.00 | 51 | 1010.2 |
| 20260505010524 | 58 | 359 | 2.0 | 6.0 | 0.00 | 0.00 | 0.00 | 49 | 1010.2 |
| 20260505010023 | 58 | 356 | 2.0 | 6.0 | 0.00 | 0.00 | 0.00 | 48 | 1010.1 |
| 20260505005524 | 59 | 355 | 2.0 | 6.0 | 0.00 | 0.00 | 0.00 | 46 | 1010.0 |
| 20260505005022 | 59 | 354 | 1.0 | 5.0 | 0.00 | 0.00 | 0.00 | 46 | 1010.0 |
| 20260505004506 | 59 | 359 | 1.0 | 6.0 | 0.00 | 0.00 | 0.00 | 46 | 1009.8 |
| 20260505004006 | 59 | 1 | 2.0 | 8.0 | 0.00 | 0.00 | 0.00 | 46 | 1009.6 |
| 20260505003511 | 59 | 360 | 3.0 | 8.0 | 0.00 | 0.00 | 0.00 | 46 | 1009.7 |
| 20260505003006 | 59 | 5 | 2.0 | 7.0 | 0.00 | 0.00 | 0.00 | 47 | 1009.5 |
| 20260505002510 | 59 | 6 | 3.0 | 7.0 | 0.00 | 0.00 | 0.00 | 47 | 1009.6 |
| 20260505002006 | 59 | 1 | 2.0 | 10.0 | 0.00 | 0.00 | 0.00 | 47 | 1009.6 |
| 20260505001506 | 60 | 360 | 4.0 | 10.0 | 0.00 | 0.00 | 0.00 | 46 | 1009.7 |
| 20260505001004 | 60 | 329 | 4.0 | 10.0 | 0.00 | 0.00 | 0.00 | 45 | 1009.7 |
| 20260505000505 | 61 | 348 | 3.0 | 9.0 | 0.00 | 0.00 | 0.00 | 43 | 1009.4 |
| 20260505000019 | 61 | 7 | 2.0 | 6.0 | 0.00 | 0.00 | 0.00 | 39 | 1009.3 |
| 20260504235508 | 62 | 7 | 2.0 | 5.0 | 0.00 | 0.00 | 0.00 | 39 | 1009.3 |
| 20260504235008 | 61 | 2 | 2.0 | 10.0 | 0.00 | 0.00 | 0.00 | 39 | 1009.4 |
| 20260504234506 | 61 | 360 | 3.0 | 10.0 | 0.00 | 0.00 | 0.00 | 39 | 1009.3 |
| 20260504234006 | 61 | 328 | 2.0 | 9.0 | 0.00 | 0.00 | 0.00 | 40 | 1009.4 |
| 20260504233505 | 61 | 359 | 3.0 | 9.0 | 0.00 | 0.00 | 0.00 | 40 | 1009.5 |
| 20260504233007 | 61 | 360 | 2.0 | 8.0 | 0.00 | 0.00 | 0.00 | 41 | 1009.4 |
| 20260504232508 | 61 | 349 | 3.0 | 14.0 | 0.00 | 0.00 | 0.00 | 43 | 1009.3 |
| 20260504232005 | 62 | 359 | 8.0 | 16.0 | 0.00 | 0.00 | 0.00 | 42 | 1009.3 |
| 20260504231511 | 62 | 359 | 10.0 | 16.0 | 0.00 | 0.00 | 0.00 | 39 | 1009.4 |
| 20260504231010 | 63 | 304 | 9.0 | 16.0 | 0.00 | 0.00 | 0.00 | 38 | 1009.2 |
| 20260504230509 | 63 | 352 | 2.0 | 5.0 | 0.00 | 0.00 | 0.00 | 34 | 1009.2 |
| 20260504230013 | 63 | 351 | 1.0 | 5.0 | 0.00 | 0.00 | 0.00 | 33 | 1009.2 |
| 20260504225510 | 63 | 1 | 1.0 | 4.0 | 0.00 | 0.00 | 0.00 | 34 | 1009.2 |
| 20260504225014 | 63 | 2 | 1.0 | 5.0 | 0.00 | 0.00 | 0.00 | 33 | 1009.1 |
| 20260504224518 | 63 | 2 | 2.0 | 8.0 | 0.00 | 0.00 | 0.00 | 33 | 1008.9 |
| 20260504224013 | 63 | 8 | 2.0 | 9.0 | 0.00 | 0.00 | 0.00 | 32 | 1008.8 |
| 20260504223513 | 64 | 1 | 4.0 | 9.0 | 0.00 | 0.00 | 0.00 | 32 | 1008.5 |
| 20260504223014 | 64 | 1 | 4.0 | 11.0 | 0.00 | 0.00 | 0.00 | 32 | 1008.4 |
| 20260504222513 | 64 | 12 | 4.0 | 11.0 | 0.00 | 0.00 | 0.00 | 32 | 1008.4 |
| 20260504222016 | 64 | 2 | 3.0 | 10.0 | 0.00 | 0.00 | 0.00 | 32 | 1008.3 |
| 20260504221511 | 65 | 1 | 4.0 | 14.0 | 0.00 | 0.00 | 0.00 | 31 | 1008.3 |
| 20260504221011 | 66 | 6 | 5.0 | 14.0 | 0.00 | 0.00 | 0.00 | 31 | 1008.3 |
| 20260504220512 | 66 | 353 | 4.0 | 12.0 | 0.00 | 0.00 | 0.00 | 31 | 1008.1 |
| 20260504220020 | 67 | 7 | 4.0 | 14.0 | 0.00 | 0.00 | 0.00 | 29 | 1008.0 |
| 20260504215515 | 67 | 26 | 6.0 | 14.0 | 0.00 | 0.00 | 0.00 | 29 | 1007.9 |
| 20260504215015 | 67 | 359 | 6.0 | 14.0 | 0.00 | 0.00 | 0.00 | 30 | 1007.9 |
| 20260504214522 | 67 | 1 | 7.0 | 16.0 | 0.00 | 0.00 | 0.00 | 30 | 1008.0 |
| 20260504214019 | 67 | 57 | 5.0 | 16.0 | 0.00 | 0.00 | 0.00 | 29 | 1008.3 |
| 20260504213515 | 67 | 6 | 6.0 | 17.0 | 0.00 | 0.00 | 0.00 | 29 | 1008.3 |
| 20260504213018 | 68 | 359 | 6.0 | 17.0 | 0.00 | 0.00 | 0.00 | 29 | 1008.5 |
| 20260504212520 | 68 | 360 | 7.0 | 15.0 | 0.00 | 0.00 | 0.00 | 29 | 1008.5 |
| 20260504212021 | 68 | 18 | 5.0 | 14.0 | 0.00 | 0.00 | 0.00 | 29 | 1008.5 |
| 20260504211526 | 66 | 323 | 7.0 | 14.0 | 0.00 | 0.00 | 0.00 | 30 | 1008.5 |
| 20260504211017 | 66 | 1 | 5.0 | 12.0 | 0.00 | 0.00 | 0.00 | 30 | 1008.7 |
| 20260504210517 | 67 | 23 | 6.0 | 14.0 | 0.00 | 0.00 | 0.00 | 27 | 1008.7 |
| 20260504210018 | 67 | 358 | 4.0 | 14.0 | 0.00 | 0.00 | 0.00 | 26 | 1008.7 |
| 20260504205518 | 67 | 250 | 5.0 | 12.0 | 0.00 | 0.00 | 0.00 | 24 | 1008.5 |
| 20260504205017 | 67 | 219 | 6.0 | 13.0 | 0.00 | 0.00 | 0.00 | 24 | 1008.5 |
| 20260504204523 | 67 | 232 | 6.0 | 13.0 | 0.00 | 0.00 | 0.00 | 24 | 1008.3 |
| 20260504204020 | 67 | 223 | 7.0 | 18.0 | 0.00 | 0.00 | 0.00 | 24 | 1008.2 |
| 20260504203521 | 67 | 181 | 10.0 | 19.0 | 0.00 | 0.00 | 0.00 | 24 | 1008.0 |
| 20260504203022 | 66 | 214 | 10.0 | 19.0 | 0.00 | 0.00 | 0.00 | 25 | 1007.9 |
| 20260504202519 | 66 | 214 | 10.0 | 19.0 | 0.00 | 0.00 | 0.00 | 26 | 1007.9 |
| 20260504202019 | 66 | 229 | 13.0 | 21.0 | 0.00 | 0.00 | 0.00 | 28 | 1008.0 |
| 20260504201520 | 66 | 229 | 13.0 | 22.0 | 0.00 | 0.00 | 0.00 | 27 | 1008.0 |
| 20260504201019 | 67 | 238 | 16.0 | 22.0 | 0.00 | 0.00 | 0.00 | 25 | 1008.1 |
| 20260504200519 | 69 | 210 | 12.0 | 22.0 | 0.00 | 0.00 | 0.00 | 23 | 1007.9 |
| 20260504200020 | 71 | 2 | 5.0 | 13.0 | 0.00 | 0.00 | 0.00 | 20 | 1007.8 |
| 20260504195520 | 71 | 1 | 6.0 | 13.0 | 0.00 | 0.00 | 0.00 | 20 | 1007.8 |
| 20260504195022 | 71 | 359 | 4.0 | 9.0 | 0.00 | 0.00 | 0.00 | 20 | 1007.8 |
| 20260504194520 | 72 | 240 | 5.0 | 9.0 | 0.00 | 0.00 | 0.00 | 17 | 1007.7 |
| 20260504194020 | 72 | 289 | 3.0 | 13.0 | 0.00 | 0.00 | 0.00 | 17 | 1007.8 |
| 20260504193521 | 73 | 297 | 8.0 | 13.0 | 0.00 | 0.00 | 0.00 | 17 | 1007.9 |
| 20260504193024 | 73 | 301 | 5.0 | 13.0 | 0.00 | 0.00 | 0.00 | 17 | 1007.7 |
| 20260504192521 | 74 | 287 | 5.0 | 12.0 | 0.00 | 0.00 | 0.00 | 18 | 1007.8 |
| 20260504192025 | 74 | 326 | 4.0 | 12.0 | 0.00 | 0.00 | 0.00 | 18 | 1007.7 |
| 20260504191526 | 74 | 309 | 4.0 | 10.0 | 0.00 | 0.00 | 0.00 | 18 | 1007.7 |
| 20260504191023 | 74 | 354 | 4.0 | 11.0 | 0.00 | 0.00 | 0.00 | 17 | 1007.7 |
| 20260504190525 | 74 | 290 | 6.0 | 16.0 | 0.00 | 0.00 | 0.00 | 18 | 1007.7 |
| 20260504190022 | 73 | 257 | 9.0 | 16.0 | 0.00 | 0.00 | 0.00 | 17 | 1007.7 |
| 20260504185522 | 74 | 279 | 4.0 | 10.0 | 0.00 | 0.00 | 0.00 | 18 | 1007.7 |
| 20260504185020 | 74 | 258 | 4.0 | 12.0 | 0.00 | 0.00 | 0.00 | 19 | 1007.7 |
| 20260504184527 | 74 | 249 | 5.0 | 12.0 | 0.00 | 0.00 | 0.00 | 19 | 1007.7 |
| 20260504184023 | 74 | 315 | 5.0 | 11.0 | 0.00 | 0.00 | 0.00 | 18 | 1007.9 |
| 20260504183522 | 73 | 359 | 5.0 | 13.0 | 0.00 | 0.00 | 0.00 | 19 | 1007.8 |
| 20260504183023 | 72 | 314 | 6.0 | 14.0 | 0.00 | 0.00 | 0.00 | 22 | 1008.0 |
| 20260504182522 | 71 | 298 | 10.0 | 18.0 | 0.00 | 0.00 | 0.00 | 21 | 1008.0 |
| 20260504182021 | 71 | 284 | 9.0 | 18.0 | 0.00 | 0.00 | 0.00 | 23 | 1008.1 |
| 20260504181532 | 71 | 258 | 9.0 | 17.0 | 0.00 | 0.00 | 0.00 | 21 | 1008.2 |
| 20260504181027 | 70 | 283 | 7.0 | 18.0 | 0.00 | 0.00 | 0.00 | 23 | 1008.3 |
| 20260504180524 | 70 | 290 | 12.0 | 19.0 | 0.00 | 0.00 | 0.00 | 22 | 1008.3 |
| 20260504180026 | 70 | 304 | 12.0 | 19.0 | 0.00 | 0.00 | 0.00 | 22 | 1008.3 |
| 20260504175528 | 70 | 281 | 11.0 | 18.0 | 0.00 | 0.00 | 0.00 | 23 | 1008.4 |
| 20260504175023 | 71 | 276 | 11.0 | 18.0 | 0.00 | 0.00 | 0.00 | 23 | 1008.5 |
| 20260504174523 | 70 | 297 | 11.0 | 19.0 | 0.00 | 0.00 | 0.00 | 23 | 1008.6 |
| 20260504174022 | 70 | 258 | 12.0 | 19.0 | 0.00 | 0.00 | 0.00 | 24 | 1008.8 |
| 20260504173522 | 69 | 307 | 11.0 | 24.0 | 0.00 | 0.00 | 0.00 | 25 | 1008.8 |
| 20260504173025 | 69 | 284 | 13.0 | 24.0 | 0.00 | 0.00 | 0.00 | 25 | 1008.9 |
| 20260504172527 | 69 | 282 | 12.0 | 21.0 | 0.00 | 0.00 | 0.00 | 25 | 1008.9 |
| 20260504172024 | 68 | 269 | 15.0 | 20.0 | 0.00 | 0.00 | 0.00 | 25 | 1008.9 |
| 20260504171523 | 69 | 283 | 13.0 | 21.0 | 0.00 | 0.00 | 0.00 | 25 | 1009.0 |
| 20260504171026 | 69 | 286 | 12.0 | 22.0 | 0.00 | 0.00 | 0.00 | 25 | 1009.0 |
| 20260504170528 | 69 | 286 | 12.0 | 22.0 | 0.00 | 0.00 | 0.00 | 25 | 1009.0 |